Home   Weather   Molde   Past weeks

Flag for Norway Past Weather in Molde, Norway — Yesterday and Last 2 Weeks

Now
37 °F

Light rain. Broken clouds.


Feels Like: 29 °F
Forecast: 49 / 51 °F
Wind: 14 mph from East

Location: Aro

Current Time: Dec 7, 2016 at 1:33:52 pm

Latest Report: Dec 7, 2016 at 12:50 pm


Visibility: N/A

Pressure: 29.62 "Hg

Humidity: 93%

Dew Point: 36 °F

Location of MoldeLocation

Past Weather in Molde — Graph

°F

Molde Temperature Yesterday

Maximum temperature yesterday: 34 °F (at 12:20 am)
Minimum temperature yesterday: 27 °F (at 11:20 pm)
Average temperature yesterday: 32 °F

High & Low Weather Summary for the Past Weeks

 TemperatureHumidityPressure
High50 °F (Nov 25, 12:50 pm)100% (Nov 23, 5:20 am)30.48 "Hg (Nov 23, 5:20 am)
Low27 °F (Dec 6, 11:20 pm)53% (Nov 26, 11:20 pm)29.56 "Hg (Nov 26, 11:20 am)
Average39 °F85%30.00 "Hg
* Reported Nov 22 12:20 pm — Dec 7 12:20 pm, Molde, Weather by CustomWeather, © 2016

Note: Actual official high and low records may vary slightly from our data, if they occured in-between our weather recording intervals... More about our weather records

Advertising

Molde Weather History for the Previous 24 Hours

Scroll right to see more
 ConditionsComfort  
Time TempWeatherWind HumidityBarometerVisibility
12:20 pm
Wed, Dec 7
37 °FScattered showers. Broken clouds.13 mph87%29.65 "HgN/A
11:50 am36 °FBroken clouds.6 mph93%29.68 "HgN/A
11:20 am36 °FLight rain. Broken clouds.6 mph93%29.68 "HgN/A
10:50 am36 °FLight rain. Broken clouds.8 mph93%29.71 "HgN/A
10:20 am36 °FLight rain. Partly sunny.8 mph93%29.71 "HgN/A
9:50 am36 °FLight rain. Broken clouds.6 mph87%29.74 "HgN/A
9:20 am34 °FLight rain. Partly cloudy.5 mph93%29.74 "HgN/A
8:50 am36 °FLight rain. Partly cloudy.8 mph87%29.77 "HgN/A
8:20 am34 °FLight rain. Passing clouds.6 mph93%29.80 "HgN/A
7:50 am34 °FLight rain. Passing clouds.5 mph93%29.80 "HgN/A
7:20 am34 °FSprinkles. Passing clouds.7 mph87%29.83 "HgN/A
6:50 am34 °FSprinkles. Partly cloudy.3 mph87%29.83 "HgN/A
6:20 am34 °FSprinkles. Partly cloudy.7 mph81%29.86 "HgN/A
5:50 am34 °FOvercast.12 mph81%29.89 "HgN/A
5:20 am34 °FSprinkles. Overcast.8 mph87%29.92 "HgN/A
4:50 am34 °FSprinkles. Overcast.6 mph81%29.92 "HgN/A
4:20 am34 °FSprinkles. Overcast.7 mph81%29.95 "HgN/A
3:50 am32 °FOvercast.7 mph87%29.98 "HgN/A
3:20 am32 °FOvercast.10 mph87%30.01 "HgN/A
2:50 am32 °FOvercast.8 mph80%30.04 "HgN/A
2:20 am30 °FMostly cloudy.10 mph93%30.07 "HgN/A
1:50 am30 °FOvercast.9 mph93%30.07 "HgN/A
1:20 am28 °FPassing clouds.8 mph93%30.09 "HgN/A
12:50 am27 °FPassing clouds.7 mph93%30.12 "HgN/A
12:20 am28 °FPassing clouds.8 mph93%30.12 "HgN/A
11:50 pm
Tue, Dec 6
27 °FPassing clouds.10 mph86%30.12 "HgN/A
11:20 pm27 °FPassing clouds.8 mph93%30.15 "HgN/A
10:50 pm28 °FPassing clouds.8 mph93%30.15 "HgN/A
10:20 pm30 °FPassing clouds.9 mph86%30.18 "HgN/A
9:50 pm28 °FPassing clouds.8 mph93%30.21 "HgN/A
9:20 pm28 °FPassing clouds.8 mph100%30.21 "HgN/A
8:50 pm30 °FPassing clouds.8 mph93%30.21 "HgN/A
8:20 pm28 °FPassing clouds.8 mph93%30.21 "HgN/A
7:50 pm28 °FPassing clouds.8 mph93%30.24 "HgN/A
6:50 pm30 °FPassing clouds.6 mph93%30.24 "HgN/A
6:20 pm30 °FPassing clouds.8 mph93%30.27 "HgN/A
5:50 pm32 °FPassing clouds.7 mph93%30.27 "HgN/A
5:20 pm32 °FPassing clouds.7 mph93%30.27 "HgN/A
4:50 pm34 °FPassing clouds.5 mph93%30.27 "HgN/A
4:20 pm34 °FPassing clouds.3 mph93%30.27 "HgN/A
3:50 pm34 °FPassing clouds.3 mph100%30.27 "HgN/A
3:20 pm34 °FPassing clouds.5 mph100%30.27 "HgN/A
2:50 pm34 °FPartly sunny.5 mph93%30.27 "HgN/A
2:20 pm34 °FPartly sunny.5 mph100%30.27 "HgN/A
1:50 pm34 °FPartly sunny.6 mph100%30.27 "HgN/A
1:20 pm34 °FPartly sunny.5 mph100%30.30 "HgN/A
Weather by CustomWeather, © 2016

See weather overviewHow to use our weather pages